PISAT (41784 NORAD) Tracking and Keplerian Element Data

This shows tracking and keplerian element data for the satellite.

Feedback or suggestion? Click here.




ElementValue
Catalog41784
NamePISAT
Epoch Orbit9645
Epoch Day198.94606303
Epoch Year2018
RAAN260.4371
Inclination98.1163
Eccentricity0.0031886
Argument of Perigee0.3339
Mean Anonmoly359.7879
Mean Motion14.63348525
Decay Rate6.4E-07
L11 41784U 16059B 18198.94606303 .00000064 00000-0 21630-4 0 9999
L22 41784 98.1163 260.4371 0031886 0.3339 359.7879 14.63348525 96454

Live tracking and technical data element details for PISAT (NORAD 41784). PISAT can be tracked NOW for your location showing map with azimuth and elevation plus other details from your city location.

Track the satellite on the map from your city or location and see movement details for azimuth, elevation, latitude, longitude, range, height, and movement on the map or in text.







IsCatalogInMostPopularTable: catalog: 41784, numindb: 82
Update: records affected: 1



GetName: 41784 PISAT

Hit Count: updated at: Thu, 19 Jul 2018 21:17:33 GMT